Погода в Катайге

Россия / Томская область     58°44′52″N   87°55′41″E
темп.,
°C
ветер,
м/с
пор.,
м/с
влажн.,
%
обл.,
%
осадки,
мм/ч
давл.,
гПа
погр.,
м
14 мая, пт
пт1401:00+9зсз278494 0.0 1012256
04:00+7зсз41081100 0.0 1012410
07:00+6сз5986100 0.3 10141107
10:00+5сз695874 0.1 10161318
13:00+10сз69335 0.1 10171896
16:00+11сз692757 0.0 10161997
19:00+10зсз5835100 0.0 10171793
22:00+7з394576 0.0 1017280
15 мая, сб
сб1501:00+7юз3964100 0.0 1015446
04:00+9зюз6166184 0.1 1011742
07:00+9зюз61475100 0.5 1011751
10:00+15з6106435 0.1 10111012
13:00+16з51066100 0.1 10111632
16:00+15с4852100 0.1 1011575
19:00+7ссв2694100 4.3 1013359
22:00+7сз2395100 3.1 1015144
16 мая, вс
вс1601:00+4ссв2793100 3.1 1016176
04:00+2в25867 0.0 1016118
07:00+3всв3676100 0.0 1016253
10:00+7в3459100 0.0 1016673
13:00+9всв3346100 0.0 1015978
16:00+12всв2139100 0.0 10131245
19:00+9ссв3654100 0.0 1013260
22:00+6всв1367100 0.0 1013134
17 мая, пн
пн1701:00+5св2377100 0.1 101296
04:00+4всв2595100 1.5 1010282
07:00+4всв3496100 4.6 1010465
10:00+3св3696100 0.2 1010508
13:00+8с4567100 0.2 10111248
16:00+11ссз56348 0.0 10121897
19:00+10ссз46331 0.0 10131824
22:00+3ссз24555 0.0 101554
18 мая, вт
вт1801:000св275949 0.0 1016139
04:00−1св225994 0.0 101737
07:00+2св354898 0.0 1018282
10:00+5ссв343476 0.0 10171302
13:00+8с35285 0.0 10152114
16:00+9с452769 0.0 10142513
19:00+8с47315 0.0 10142635
22:00+2с38535 0.0 1015157